DW3588 Weather Reports


Display with metric or nautical units.
time (UTC)temp
F
wind
direction
speed
MPH
gust
MPH
rain 1hr
in
rain 24hr
in
rain mn
in
humidity
%
barometer
mb
20260906042222 69 0.0 0.0 0.00 0.00 0.00 43
20260905150115 56 0.0 0.0 0.00 0.00 0.00 81
20260905121435 57 0.0 0.0 0.00 0.00 0.00 77
20260905074328 58 232 2.0 5.0 0.00 0.00 0.00 68 1013.6
20260905073709 59 238 2.0 5.0 0.00 0.00 0.00 69 1013.5
20260905073356 58 215 1.0 3.0 0.00 0.00 0.00 69 1013.5
20260905072615 59 213 1.0 3.0 0.00 0.00 0.00 68 1013.5
20260905072051 59 213 1.0 3.0 0.00 0.00 0.00 68 1013.5
20260905071551 59 214 2.0 4.0 0.00 0.00 0.00 68 1013.4
20260905071036 60 215 2.0 4.0 0.00 0.00 0.00 69 1013.5
20260905070529 60 214 2.0 4.0 0.00 0.00 0.00 69 1013.5
20260905070027 60 214 2.0 4.0 0.00 0.00 0.00 69 1013.4
20260905065526 60 220 2.0 4.0 0.00 0.00 0.00 68 1013.4
20260905064958 60 223 1.0 3.0 0.00 0.00 0.00 68 1013.5
20260905064446 60 224 2.0 4.0 0.00 0.00 0.00 67 1013.5
20260905063922 60 226 1.0 4.0 0.00 0.00 0.00 67 1013.6
20260905063353 60 227 0.0 3.0 0.00 0.00 0.00 67 1013.6
20260905062824 60 228 1.0 3.0 0.00 0.00 0.00 67 1013.6
20260905062531 60 229 1.0 3.0 0.00 0.00 0.00 66 1013.5
20260905061752 60 229 1.0 3.0 0.00 0.00 0.00 67 1013.5
20260905061250 61 230 1.0 4.0 0.00 0.00 0.00 67 1013.5
20260905060750 61 231 2.0 4.0 0.00 0.00 0.00 67 1013.5
20260905060249 61 240 1.0 4.0 0.00 0.00 0.00 67 1013.5
20260905055749 61 261 1.0 3.0 0.00 0.00 0.00 67 1013.5
20260905055244 61 267 1.0 3.0 0.00 0.00 0.00 67 1013.6
20260905054742 61 307 0.0 2.0 0.00 0.00 0.00 68 1013.6
20260905054243 61 307 1.0 2.0 0.00 0.00 0.00 67 1013.5
20260905054003 62 309 0.0 2.0 0.00 0.00 0.00 66 1013.6
20260905053058 62 0.0 0.0 0.00 0.00 0.00 66
20260905051213 63 317 4.0 7.0 0.00 0.00 0.00 66 1013.8
20260905050657 63 312 4.0 7.0 0.00 0.00 0.00 66 1013.8
20260905050138 63 313 3.0 4.0 0.00 0.00 0.00 66 1013.8